STARLINK-32254, 60427

Orbit data source: Space-Track

STARLINK-32254, 60427 is a payload satellite owned by SpaceX/Seattle (US) in LEO that was launched on Mon, 12 Aug 2024 UTC via an FALCON 9 launch vehicle from the Air Force Eastern Test Range (AFETR). Payload-class satellites include a variety of spacecraft equipped with specific instruments for various scientific and technological missions. These include communications satellites like Starlink; space stations such as the ISS; scientific satellites like the Hubble; Earth observation satellites from companies like Planet Labs, Umbra, and HawkEye 360; GPS; miniature CubeSats for education and research; and military/defense satellites.

Loading next visibility...
Identifier
60427, 2024-144C
Orbit
LEO
Country
Flag of USUS
Related business
Manufacturer
SpaceX/Seattle
Mission
Operational Commercial Communications
Bus & Motor
STARLINK V2M, Unknown motor
Mass
730 kg wet, ~700 kg dry
Launch date (UTC)
2024-08-12 (2 years ago)
Launch vehicle
FALCON 9
Launch site
Air Force Eastern Test Range (AFETR)
Object type
Payload
Rocket body
Debris
Shape & HBR
Box + 2 Pan, 17.7 m
Radar Cross Section
33.884 m², Large (>1 m²)

Expand to show TLE details & history
Last TLE update: 17 hours ago

TLE from 17 hours ago
0 STARLINK-32254
1 60427U 24144C   26171.18493843  .00000903  00000-0  37846-4 0  9995
2 60427  53.1618 100.9108 0001409 114.2508 245.8642 15.34403809105047
Epoch: 2026-06-20T04:26Z
TLE epoch observation values (Epoch: 2026-06-20T04:26:18.680Z)
Latitude
-0.00001°
Longitude
125.92976°
Altitude
463.988 km
Speed
7.635 km/s
True Right ascension
06h 43m 38s
True Declination
0° 00' 00"
Sunlit
Object was in daylight at epoch
Visualization orbit readout
Latitude
Unknown
Longitude
Unknown
Altitude
Unknown
Speed
Unknown
Apparent Right ascension
Unknown
Apparent Declination
Unknown
Sunlit
N/A
Visualization observer readout
Local Sidereal Time
08:32:51
Azimuth
Unknown
Elevation
Unknown
Doppler factor
Unknown
Orbital elements
Apogee altitude
463.912 km
Perigee altitude
461.985 km
Semi-major axis
6,841.086 km
Eccentricity
0.00014
Inclination
53.1618°
RAAN
100.9108°
Arg. of periapsis
114.2508°
True anomaly
245.84947°
Mean anomaly
245.8642°
Eccentric anomaly
245.85683°
Mean motion
3.8358 °/min
Orbital period
93.85 mins
BSTAR
0.000037846
Loading maneuver chart data...
Computing Atmospheric mass density...
Loading historical data...
Loading historical data...
Loading historical data...
Loading historical data...
Loading historical data...
Loading historical data...
Loading historical data...

Documentation

Showing up to 5 results
|